owner,sensor,date,latitude,longitude,vertical_datum,direction_of_sea_water_velocity,sea_water_speed,upward_sea_water_velocity,qcFlag 
TABS,ioos:station:wmo:42050:1,2013-05-01T00:00:00Z,28.8425,-94.2433,2.0,96.32301329,18.43212684,-99999.0,'11111222,11111222,99999999' 
TABS,ioos:station:wmo:42050:1,2013-05-01T00:30:00Z,28.8425,-94.2433,2.0,96.56585369,19.06504655,-99999.0,'11111222,11111222,99999999' 
TABS,ioos:station:wmo:42050:1,2013-05-01T01:00:00Z,28.8425,-94.2433,2.0,98.94859178,21.08666166,-99999.0,'11111222,11111222,99999999' 
TABS,ioos:station:wmo:42050:1,2013-05-01T01:30:00Z,28.8425,-94.2433,2.0,113.3659421,22.91963569,-99999.0,'11111222,11111222,99999999' 
TABS,ioos:station:wmo:42050:1,2013-05-01T02:00:00Z,28.8425,-94.2433,2.0,125.3215302,24.352891,-99999.0,'11111222,11111222,99999999' 
TABS,ioos:station:wmo:42050:1,2013-05-01T02:30:00Z,28.8425,-94.2433,2.0,129.9584659,23.4961316,-99999.0,'11111222,11111222,99999999' 
TABS,ioos:station:wmo:42050:1,2013-05-01T03:00:00Z,28.8425,-94.2433,2.0,141.8478699,24.67017633,-99999.0,'11111222,11111222,99999999' 
TABS,ioos:station:wmo:42050:1,2013-05-01T03:30:00Z,28.8425,-94.2433,2.0,153.6033166,22.80799202,-99999.0,'11111222,11111222,99999999' 
TABS,ioos:station:wmo:42050:1,2013-05-01T04:00:00Z,28.8425,-94.2433,2.0,164.0343248,23.48591067,-99999.0,'11111222,11111222,99999999' 
TABS,ioos:station:wmo:42050:1,2013-05-01T04:30:00Z,28.8425,-94.2433,2.0,174.0424535,22.64228125,-99999.0,'11111222,11111222,99999999' 
TABS,ioos:station:wmo:42050:1,2013-05-01T05:00:00Z,28.8425,-94.2433,2.0,180.2033256,22.5201421,-99999.0,'11111222,11111222,99999999' 
TABS,ioos:station:wmo:42050:1,2013-05-01T05:30:00Z,28.8425,-94.2433,2.0,197.8343138,21.12517456,-99999.0,'11111222,11111222,99999999' 
TABS,ioos:station:wmo:42050:1,2013-05-01T06:00:00Z,28.8425,-94.2433,2.0,211.4318974,20.76745772,-99999.0,'11111222,11111222,99999999' 
TABS,ioos:station:wmo:42050:1,2013-05-01T06:30:00Z,28.8425,-94.2433,2.0,220.6860752,18.99011322,-99999.0,'11111222,11111222,99999999' 
TABS,ioos:station:wmo:42050:1,2013-05-01T12:30:00Z,28.8425,-94.2433,2.0,284.0060576,49.99630086,-99999.0,'11111222,11111222,99999999' 
TABS,ioos:station:wmo:42050:1,2013-05-02T00:00:00Z,28.8425,-94.2433,2.0,245.9994391,161.9954697,-99999.0,'11133222,11111222,99999999' 
TABS,ioos:station:wmo:42050:1,2013-05-02T01:00:00Z,28.8425,-94.2433,2.0,233.0033136,28.99807063,-99999.0,'11111222,11111222,99999999' 
TABS,ioos:station:wmo:42050:1,2013-05-02T01:30:00Z,28.8425,-94.2433,2.0,227.9969767,32.99631495,-99999.0,'11111222,11111222,99999999' 
TABS,ioos:station:wmo:42050:1,2013-05-02T02:00:00Z,28.8425,-94.2433,2.0,232.9943254,32.99609219,-99999.0,'11111222,11111222,99999999' 
TABS,ioos:station:wmo:42050:1,2013-05-02T02:30:00Z,28.8425,-94.2433,2.0,224.9996843,33.99769404,-99999.0,'11111222,11111222,99999999' 
TABS,ioos:station:wmo:42050:1,2013-05-02T03:00:00Z,28.8425,-94.2433,2.0,228.0069696,30.99982581,-99999.0,'11111222,11111222,99999999' 
TABS,ioos:station:wmo:42050:1,2013-05-02T03:30:00Z,28.8425,-94.2433,2.0,229.9946412,31.99789056,-99999.0,'11111222,11111222,99999999' 
TABS,ioos:station:wmo:42050:1,2013-05-02T04:00:00Z,28.8425,-94.2433,2.0,230.0029162,32.99912878,-99999.0,'11111222,11111222,99999999' 
TABS,ioos:station:wmo:42050:1,2013-05-02T04:30:00Z,28.8425,-94.2433,2.0,224.9996843,39.99395954,-99999.0,'11111222,11111222,99999999' 
TABS,ioos:station:wmo:42050:1,2013-05-02T05:00:00Z,28.8425,-94.2433,2.0,224.9996843,39.00401005,-99999.0,'11111222,11111222,99999999' 
TABS,ioos:station:wmo:42050:1,2013-05-02T05:30:00Z,28.8425,-94.2433,2.0,220.9983923,38.00062236,-99999.0,'11111222,11111222,99999999' 
TABS,ioos:station:wmo:42050:1,2013-05-02T06:00:00Z,28.8425,-94.2433,2.0,221.9994298,101.9985417,-99999.0,'11111222,11111222,99999999' 
TABS,ioos:station:wmo:42050:1,2013-05-02T06:30:00Z,28.8425,-94.2433,2.0,223.9925702,35.00012143,-99999.0,'11111222,11111222,99999999' 
TABS,ioos:station:wmo:42050:1,2013-05-02T07:00:00Z,28.8425,-94.2433,2.0,224.9996843,33.99769404,-99999.0,'11111222,11111222,99999999' 
TABS,ioos:station:wmo:42050:1,2013-05-02T07:30:00Z,28.8425,-94.2433,2.0,215.0023281,30.99645948,-99999.0,'11111222,11111222,99999999' 
TABS,ioos:station:wmo:42050:1,2013-05-02T08:00:00Z,28.8425,-94.2433,2.0,215.002157,27.00434224,-99999.0,'11111222,11111222,99999999' 
TABS,ioos:station:wmo:42050:1,2013-05-02T08:30:00Z,28.8425,-94.2433,2.0,226.9977218,29.00193959,-99999.0,'11111222,11111222,99999999' 
TABS,ioos:station:wmo:42050:1,2013-05-02T09:00:00Z,28.8425,-94.2433,2.0,218.0022314,26.00308059,-99999.0,'11111222,11111222,99999999' 
TABS,ioos:station:wmo:42050:1,2013-05-02T11:30:00Z,28.8425,-94.2433,2.0,188.2104736,14.0742673,-99999.0,'11111222,11111222,99999999' 
TABS,ioos:station:wmo:42050:1,2013-05-02T12:00:00Z,28.8425,-94.2433,2.0,172.3636698,14.59946917,-99999.0,'11111222,11111222,99999999' 
TABS,ioos:station:wmo:42050:1,2013-05-02T12:30:00Z,28.8425,-94.2433,2.0,150.8993802,13.34450074,-99999.0,'11111222,11111222,99999999' 
TABS,ioos:station:wmo:42050:1,2013-05-02T13:00:00Z,28.8425,-94.2433,2.0,160.5699464,15.66196029,-99999.0,'11111222,11111222,99999999' 
TABS,ioos:station:wmo:42050:1,2013-05-02T13:30:00Z,28.8425,-94.2433,2.0,159.680838,14.42778569,-99999.0,'11111222,11111222,99999999' 
TABS,ioos:station:wmo:42050:1,2013-05-02T14:00:00Z,28.8425,-94.2433,2.0,160.6627503,16.67043191,-99999.0,'11111222,11111222,99999999' 
TABS,ioos:station:wmo:42050:1,2013-05-02T14:30:00Z,28.8425,-94.2433,2.0,155.1867861,14.77389928,-99999.0,'11111222,11111222,99999999' 
TABS,ioos:station:wmo:42050:1,2013-05-02T15:00:00Z,28.8425,-94.2433,2.0,165.3390384,16.9105884,-99999.0,'11111222,11111222,99999999' 
TABS,ioos:station:wmo:42050:1,2013-05-02T15:30:00Z,28.8425,-94.2433,2.0,156.0593017,18.55646788,-99999.0,'11111222,11111222,99999999' 
TABS,ioos:station:wmo:42050:1,2013-05-02T16:00:00Z,28.8425,-94.2433,2.0,168.9690043,14.89519721,-99999.0,'11111222,11111222,99999999' 
TABS,ioos:station:wmo:42050:1,2013-05-02T16:30:00Z,28.8425,-94.2433,2.0,168.30236,19.1374502,-99999.0,'11111222,11111222,99999999' 
TABS,ioos:station:wmo:42050:1,2013-05-02T17:00:00Z,28.8425,-94.2433,2.0,176.5226054,21.26915607,-99999.0,'11111222,11111222,99999999' 
TABS,ioos:station:wmo:42050:1,2013-05-02T17:30:00Z,28.8425,-94.2433,2.0,195.4319837,22.69836999,-99999.0,'11111222,11111222,99999999' 
TABS,ioos:station:wmo:42050:1,2013-05-02T18:00:00Z,28.8425,-94.2433,2.0,215.2782217,26.2141107,-99999.0,'11111222,11111222,99999999' 
TABS,ioos:station:wmo:42050:1,2013-05-02T18:30:00Z,28.8425,-94.2433,2.0,229.6000736,30.50386533,-99999.0,'11111222,11111222,99999999' 
TABS,ioos:station:wmo:42050:1,2013-05-02T19:00:00Z,28.8425,-94.2433,2.0,245.1416295,28.97441112,-99999.0,'11111222,11111222,99999999' 
TABS,ioos:station:wmo:42050:1,2013-05-02T19:30:00Z,28.8425,-94.2433,2.0,244.8330306,24.73828005,-99999.0,'11111222,11111222,99999999' 
TABS,ioos:station:wmo:42050:1,2013-05-02T20:00:00Z,28.8425,-94.2433,2.0,253.2862825,27.26165255,-99999.0,'11111222,11111222,99999999' 
TABS,ioos:station:wmo:42050:1,2013-05-02T20:30:00Z,28.8425,-94.2433,2.0,252.4393481,19.88671919,-99999.0,'11111222,11111222,99999999' 
TABS,ioos:station:wmo:42050:1,2013-05-02T21:00:00Z,28.8425,-94.2433,2.0,254.2470834,20.81161695,-99999.0,'11111222,11111222,99999999' 
TABS,ioos:station:wmo:42050:1,2013-05-02T21:30:00Z,28.8425,-94.2433,2.0,257.1197155,22.83452868,-99999.0,'11111222,11111222,99999999' 
TABS,ioos:station:wmo:42050:1,2013-05-02T22:00:00Z,28.8425,-94.2433,2.0,256.5741731,19.33846426,-99999.0,'11111222,11111222,99999999' 
TABS,ioos:station:wmo:42050:1,2013-05-02T22:30:00Z,28.8425,-94.2433,2.0,255.5282616,16.92704936,-99999.0,'11111222,11111222,99999999' 
TABS,ioos:station:wmo:42050:1,2013-05-02T23:00:00Z,28.8425,-94.2433,2.0,259.1579504,17.75694794,-99999.0,'11111222,11111222,99999999' 
TABS,ioos:station:wmo:42050:1,2013-05-02T23:30:00Z,28.8425,-94.2433,2.0,202.4216939,19.37473097,-99999.0,'11111222,11111222,99999999' 
TABS,ioos:station:wmo:42050:1,2013-05-03T00:00:00Z,28.8425,-94.2433,2.0,191.7448793,32.27576335,-99999.0,'11111222,11111222,99999999' 
TABS,ioos:station:wmo:42050:1,2013-05-03T00:30:00Z,28.8425,-94.2433,2.0,190.1716337,39.69389122,-99999.0,'11111222,11111222,99999999' 
TABS,ioos:station:wmo:42050:1,2013-05-03T01:00:00Z,28.8425,-94.2433,2.0,194.3621145,42.61177419,-99999.0,'11111222,11111222,99999999' 
TABS,ioos:station:wmo:42050:1,2013-05-03T01:30:00Z,28.8425,-94.2433,2.0,198.0848869,39.36476597,-99999.0,'11111222,11111222,99999999' 
TABS,ioos:station:wmo:42050:1,2013-05-03T02:00:00Z,28.8425,-94.2433,2.0,199.6307589,43.933609,-99999.0,'11111222,11111222,99999999' 
TABS,ioos:station:wmo:42050:1,2013-05-03T02:30:00Z,28.8425,-94.2433,2.0,211.448794,44.54321048,-99999.0,'11111222,11111222,99999999' 
TABS,ioos:station:wmo:42050:1,2013-05-03T03:00:00Z,28.8425,-94.2433,2.0,213.7871039,48.9828715,-99999.0,'11111222,11111222,99999999' 
TABS,ioos:station:wmo:42050:1,2013-05-03T03:30:00Z,28.8425,-94.2433,2.0,217.6943332,52.66145554,-99999.0,'11111222,11111222,99999999' 
TABS,ioos:station:wmo:42050:1,2013-05-03T04:00:00Z,28.8425,-94.2433,2.0,222.3261991,54.72599108,-99999.0,'11111222,11111222,99999999' 
TABS,ioos:station:wmo:42050:1,2013-05-03T04:30:00Z,28.8425,-94.2433,2.0,224.055735,55.79829747,-99999.0,'11111222,11111222,99999999' 
TABS,ioos:station:wmo:42050:1,2013-05-03T05:00:00Z,28.8425,-94.2433,2.0,224.720893,56.67527944,-99999.0,'11111222,11111222,99999999' 
TABS,ioos:station:wmo:42050:1,2013-05-03T05:30:00Z,28.8425,-94.2433,2.0,224.9440498,50.97535189,-99999.0,'11111222,11111222,99999999' 
TABS,ioos:station:wmo:42050:1,2013-05-03T06:00:00Z,28.8425,-94.2433,2.0,225.6096108,51.14793153,-99999.0,'11111222,11111222,99999999' 
TABS,ioos:station:wmo:42050:1,2013-05-03T06:30:00Z,28.8425,-94.2433,2.0,226.4635094,45.94865178,-99999.0,'11111222,11111222,99999999' 
TABS,ioos:station:wmo:42050:1,2013-05-03T07:00:00Z,28.8425,-94.2433,2.0,225.8066119,46.19279598,-99999.0,'11111222,11111222,99999999' 
TABS,ioos:station:wmo:42050:1,2013-05-03T07:30:00Z,28.8425,-94.2433,2.0,225.9213959,44.8363714,-99999.0,'11111222,11111222,99999999' 
TABS,ioos:station:wmo:42050:1,2013-05-03T08:00:00Z,28.8425,-94.2433,2.0,228.0145488,40.87077195,-99999.0,'11111222,11111222,99999999' 
TABS,ioos:station:wmo:42050:1,2013-05-03T08:30:00Z,28.8425,-94.2433,2.0,227.6677416,39.03925845,-99999.0,'11111222,11111222,99999999' 
TABS,ioos:station:wmo:42050:1,2013-05-03T09:00:00Z,28.8425,-94.2433,2.0,227.6759236,36.95127603,-99999.0,'11111222,11111222,99999999' 
TABS,ioos:station:wmo:42050:1,2013-05-03T09:30:00Z,28.8425,-94.2433,2.0,228.0100503,35.27674021,-99999.0,'11111222,11111222,99999999' 
TABS,ioos:station:wmo:42050:1,2013-05-03T10:00:00Z,28.8425,-94.2433,2.0,232.8566443,37.76042902,-99999.0,'11111222,11111222,99999999' 
TABS,ioos:station:wmo:42050:1,2013-05-03T10:30:00Z,28.8425,-94.2433,2.0,235.7308144,31.02596493,-99999.0,'11111222,11111222,99999999' 
TABS,ioos:station:wmo:42050:1,2013-05-03T11:00:00Z,28.8425,-94.2433,2.0,242.8382179,24.49074315,-99999.0,'11111222,11111222,99999999' 
TABS,ioos:station:wmo:42050:1,2013-05-03T11:30:00Z,28.8425,-94.2433,2.0,247.4884602,24.73465989,-99999.0,'11111222,11111222,99999999' 
TABS,ioos:station:wmo:42050:1,2013-05-03T12:00:00Z,28.8425,-94.2433,2.0,236.0753701,25.10316713,-99999.0,'11111222,11111222,99999999' 
TABS,ioos:station:wmo:42050:1,2013-05-03T12:30:00Z,28.8425,-94.2433,2.0,235.2156657,21.21005422,-99999.0,'11111222,11111222,99999999' 
TABS,ioos:station:wmo:42050:1,2013-05-03T13:00:00Z,28.8425,-94.2433,2.0,232.0245998,19.07954926,-99999.0,'11111222,11111222,99999999' 
TABS,ioos:station:wmo:42050:1,2013-05-03T13:30:00Z,28.8425,-94.2433,2.0,237.6316253,19.5944533,-99999.0,'11111222,11111222,99999999' 
TABS,ioos:station:wmo:42050:1,2013-05-03T14:00:00Z,28.8425,-94.2433,2.0,226.675346,17.16882349,-99999.0,'11111222,11111222,99999999' 
TABS,ioos:station:wmo:42050:1,2013-05-03T14:30:00Z,28.8425,-94.2433,2.0,216.9724656,13.36802154,-99999.0,'11111222,11111222,99999999' 
TABS,ioos:station:wmo:42050:1,2013-05-03T15:00:00Z,28.8425,-94.2433,2.0,219.3185267,15.07176499,-99999.0,'11111222,11111222,99999999' 
TABS,ioos:station:wmo:42050:1,2013-05-03T15:30:00Z,28.8425,-94.2433,2.0,218.4870682,17.64302979,-99999.0,'11111222,11111222,99999999' 
TABS,ioos:station:wmo:42050:1,2013-05-03T16:00:00Z,28.8425,-94.2433,2.0,211.912657,17.08188807,-99999.0,'11111222,11111222,99999999' 
TABS,ioos:station:wmo:42050:1,2013-05-03T16:30:00Z,28.8425,-94.2433,2.0,217.087895,16.79812192,-99999.0,'11111222,11111222,99999999' 
TABS,ioos:station:wmo:42050:1,2013-05-03T17:00:00Z,28.8425,-94.2433,2.0,209.5070659,15.85673674,-99999.0,'11111222,11111222,99999999' 
TABS,ioos:station:wmo:42050:1,2013-05-03T17:30:00Z,28.8425,-94.2433,2.0,209.6822363,15.95335701,-99999.0,'11111222,11111222,99999999' 
TABS,ioos:station:wmo:42050:1,2013-05-03T18:00:00Z,28.8425,-94.2433,2.0,197.9227431,16.28005528,-99999.0,'11111222,11111222,99999999' 
TABS,ioos:station:wmo:42050:1,2013-05-03T18:30:00Z,28.8425,-94.2433,2.0,197.1661909,23.14089454,-99999.0,'11111222,11111222,99999999' 
TABS,ioos:station:wmo:42050:1,2013-05-03T19:00:00Z,28.8425,-94.2433,2.0,199.6875878,20.39207934,-99999.0,'11111222,11111222,99999999' 
TABS,ioos:station:wmo:42050:1,2013-05-03T19:30:00Z,28.8425,-94.2433,2.0,201.9702066,20.76825703,-99999.0,'11111222,11111222,99999999' 
TABS,ioos:station:wmo:42050:1,2013-05-03T20:00:00Z,28.8425,-94.2433,2.0,198.9199236,24.27135143,-99999.0,'11111222,11111222,99999999' 
TABS,ioos:station:wmo:42050:1,2013-05-03T20:30:00Z,28.8425,-94.2433,2.0,203.4363479,24.33785734,-99999.0,'11111222,11111222,99999999' 
TABS,ioos:station:wmo:42050:1,2013-05-03T21:00:00Z,28.8425,-94.2433,2.0,208.1654784,25.29532763,-99999.0,'11111222,11111222,99999999' 
TABS,ioos:station:wmo:42050:1,2013-05-03T21:30:00Z,28.8425,-94.2433,2.0,208.9204326,20.78168906,-99999.0,'11111222,11111222,99999999' 
TABS,ioos:station:wmo:42050:1,2013-05-03T22:00:00Z,28.8425,-94.2433,2.0,202.7973221,21.57548841,-99999.0,'11111222,11111222,99999999' 
TABS,ioos:station:wmo:42050:1,2013-05-03T22:30:00Z,28.8425,-94.2433,2.0,206.4672749,21.02354157,-99999.0,'11111222,11111222,99999999' 
TABS,ioos:station:wmo:42050:1,2013-05-03T23:00:00Z,28.8425,-94.2433,2.0,211.8067159,18.06247215,-99999.0,'11111222,11111222,99999999' 
TABS,ioos:station:wmo:42050:1,2013-05-03T23:30:00Z,28.8425,-94.2433,2.0,213.7626156,17.45365578,-99999.0,'11111222,11111222,99999999' 
TABS,ioos:station:wmo:42050:1,2013-05-04T00:00:00Z,28.8425,-94.2433,2.0,213.1965428,16.1090906,-99999.0,'11111222,11111222,99999999' 
TABS,ioos:station:wmo:42050:1,2013-05-04T00:30:00Z,28.8425,-94.2433,2.0,208.4082659,14.04082975,-99999.0,'11111222,11111222,99999999' 
TABS,ioos:station:wmo:42050:1,2013-05-04T01:00:00Z,28.8425,-94.2433,2.0,203.7787617,17.75748011,-99999.0,'11111222,11111222,99999999' 
TABS,ioos:station:wmo:42050:1,2013-05-04T01:30:00Z,28.8425,-94.2433,2.0,221.4972837,14.69992177,-99999.0,'11111222,11111222,99999999' 
TABS,ioos:station:wmo:42050:1,2013-05-04T02:00:00Z,28.8425,-94.2433,2.0,225.5092891,11.13030098,-99999.0,'11111222,11111222,99999999' 
TABS,ioos:station:wmo:42050:1,2013-05-04T02:30:00Z,28.8425,-94.2433,2.0,228.8089728,11.28206541,-99999.0,'11111222,11111222,99999999' 
TABS,ioos:station:wmo:42050:1,2013-05-04T03:00:00Z,28.8425,-94.2433,2.0,221.9970807,8.369492219,-99999.0,'11133222,11111222,99999999' 
TABS,ioos:station:wmo:42050:1,2013-05-04T03:30:00Z,28.8425,-94.2433,2.0,224.8070946,8.414618233,-99999.0,'11133222,11111222,99999999' 
TABS,ioos:station:wmo:42050:1,2013-05-04T04:00:00Z,28.8425,-94.2433,2.0,209.6620428,8.608019517,-99999.0,'11133222,11111222,99999999' 
TABS,ioos:station:wmo:42050:1,2013-05-04T04:30:00Z,28.8425,-94.2433,2.0,225.6810058,6.541200196,-99999.0,'11133222,11111222,99999999' 
TABS,ioos:station:wmo:42050:1,2013-05-04T05:00:00Z,28.8425,-94.2433,2.0,241.8313137,8.791188771,-99999.0,'11133222,11111222,99999999' 
TABS,ioos:station:wmo:42050:1,2013-05-04T05:30:00Z,28.8425,-94.2433,2.0,237.7793177,8.758824122,-99999.0,'11133222,11111222,99999999' 
TABS,ioos:station:wmo:42050:1,2013-05-04T06:00:00Z,28.8425,-94.2433,2.0,228.4774627,10.25779703,-99999.0,'11111222,11111222,99999999' 
TABS,ioos:station:wmo:42050:1,2013-05-04T06:30:00Z,28.8425,-94.2433,2.0,216.1165165,9.890854361,-99999.0,'11133222,11111222,99999999' 
TABS,ioos:station:wmo:42050:1,2013-05-04T07:00:00Z,28.8425,-94.2433,2.0,220.5667386,10.88665697,-99999.0,'11111222,11111222,99999999' 
TABS,ioos:station:wmo:42050:1,2013-05-04T07:30:00Z,28.8425,-94.2433,2.0,226.5744257,12.35074897,-99999.0,'11111222,11111222,99999999' 
TABS,ioos:station:wmo:42050:1,2013-05-04T08:00:00Z,28.8425,-94.2433,2.0,226.1845339,13.67836979,-99999.0,'11111222,11111222,99999999' 
TABS,ioos:station:wmo:42050:1,2013-05-04T08:30:00Z,28.8425,-94.2433,2.0,234.5313076,11.52944925,-99999.0,'11111222,11111222,99999999' 
TABS,ioos:station:wmo:42050:1,2013-05-04T09:00:00Z,28.8425,-94.2433,2.0,245.085176,11.48921233,-99999.0,'11111222,11111222,99999999' 
TABS,ioos:station:wmo:42050:1,2013-05-04T09:30:00Z,28.8425,-94.2433,2.0,238.4155149,11.24582145,-99999.0,'11111222,11111222,99999999' 
TABS,ioos:station:wmo:42050:1,2013-05-04T10:00:00Z,28.8425,-94.2433,2.0,249.4542794,6.268723953,-99999.0,'11133222,11111222,99999999' 
TABS,ioos:station:wmo:42050:1,2013-05-04T10:30:00Z,28.8425,-94.2433,2.0,240.6292434,7.401310695,-99999.0,'11133222,11111222,99999999' 
TABS,ioos:station:wmo:42050:1,2013-05-04T11:00:00Z,28.8425,-94.2433,2.0,261.2483781,8.610238092,-99999.0,'11133222,11111222,99999999' 
TABS,ioos:station:wmo:42050:1,2013-05-04T11:30:00Z,28.8425,-94.2433,2.0,281.282847,8.178043776,-99999.0,'11133222,11111222,99999999' 
TABS,ioos:station:wmo:42050:1,2013-05-04T12:00:00Z,28.8425,-94.2433,2.0,288.5500325,6.318243427,-99999.0,'11133222,11111222,99999999' 
TABS,ioos:station:wmo:42050:1,2013-05-04T12:30:00Z,28.8425,-94.2433,2.0,300.9454602,5.2701518,-99999.0,'11133222,11111222,99999999' 
TABS,ioos:station:wmo:42050:1,2013-05-04T13:00:00Z,28.8425,-94.2433,2.0,303.9323321,7.882360053,-99999.0,'11133222,11111222,99999999' 
TABS,ioos:station:wmo:42050:1,2013-05-04T13:30:00Z,28.8425,-94.2433,2.0,320.9311637,7.869796694,-99999.0,'11133222,11111222,99999999' 
TABS,ioos:station:wmo:42050:1,2013-05-04T14:00:00Z,28.8425,-94.2433,2.0,320.3561282,11.8178509,-99999.0,'11111222,11111222,99999999' 
TABS,ioos:station:wmo:42050:1,2013-05-04T14:30:00Z,28.8425,-94.2433,2.0,331.9846865,10.07000497,-99999.0,'11111222,11111222,99999999' 
TABS,ioos:station:wmo:42050:1,2013-05-04T15:00:00Z,28.8425,-94.2433,2.0,334.6515067,10.53425365,-99999.0,'11111222,11111222,99999999' 
TABS,ioos:station:wmo:42050:1,2013-05-04T15:30:00Z,28.8425,-94.2433,2.0,332.8737795,9.584247493,-99999.0,'11133222,11111222,99999999' 
TABS,ioos:station:wmo:42050:1,2013-05-04T16:00:00Z,28.8425,-94.2433,2.0,342.8004583,10.4158005,-99999.0,'11111222,11111222,99999999' 
TABS,ioos:station:wmo:42050:1,2013-05-04T16:30:00Z,28.8425,-94.2433,2.0,352.3808955,9.201239047,-99999.0,'11133222,11111222,99999999' 
TABS,ioos:station:wmo:42050:1,2013-05-04T17:00:00Z,28.8425,-94.2433,2.0,1.076619939,9.581690874,-99999.0,'11133222,11111222,99999999' 
TABS,ioos:station:wmo:42050:1,2013-05-04T17:30:00Z,28.8425,-94.2433,2.0,344.1993247,6.53701002,-99999.0,'11133222,11111222,99999999' 
TABS,ioos:station:wmo:42050:1,2013-05-04T18:00:00Z,28.8425,-94.2433,2.0,4.773994411,4.686256502,-99999.0,'11133222,11111222,99999999' 
TABS,ioos:station:wmo:42050:1,2013-05-04T18:30:00Z,28.8425,-94.2433,2.0,60.25518826,1.93494186,-99999.0,'11133222,11111222,99999999' 
TABS,ioos:station:wmo:42050:1,2013-05-04T19:00:00Z,28.8425,-94.2433,2.0,68.72296305,2.232151429,-99999.0,'11133222,11111222,99999999' 
TABS,ioos:station:wmo:42050:1,2013-05-04T19:30:00Z,28.8425,-94.2433,2.0,152.3344192,3.725976382,-99999.0,'11133222,11111222,99999999' 
TABS,ioos:station:wmo:42050:1,2013-05-04T20:00:00Z,28.8425,-94.2433,2.0,156.9550962,3.423171045,-99999.0,'11133222,11111222,99999999' 
TABS,ioos:station:wmo:42050:1,2013-05-04T20:30:00Z,28.8425,-94.2433,2.0,144.4452083,3.921033027,-99999.0,'11133222,11111222,99999999' 
TABS,ioos:station:wmo:42050:1,2013-05-04T21:00:00Z,28.8425,-94.2433,2.0,90.0,0.18,-99999.0,'11133222,11111222,99999999' 
TABS,ioos:station:wmo:42050:1,2013-05-04T21:30:00Z,28.8425,-94.2433,2.0,111.0959069,6.334548129,-99999.0,'11133222,11111222,99999999' 
TABS,ioos:station:wmo:42050:1,2013-05-04T22:00:00Z,28.8425,-94.2433,2.0,105.8581728,5.416133307,-99999.0,'11133222,11111222,99999999' 
TABS,ioos:station:wmo:42050:1,2013-05-04T22:30:00Z,28.8425,-94.2433,2.0,101.6126778,6.309144157,-99999.0,'11133222,11111222,99999999' 
TABS,ioos:station:wmo:42050:1,2013-05-04T23:00:00Z,28.8425,-94.2433,2.0,62.57064434,9.486479853,-99999.0,'11133222,11111222,99999999' 
TABS,ioos:station:wmo:42050:1,2013-05-04T23:30:00Z,28.8425,-94.2433,2.0,75.96378935,7.833900689,-99999.0,'11133222,11111222,99999999' 
TABS,ioos:station:wmo:42050:1,2013-05-05T00:00:00Z,28.8425,-94.2433,2.0,70.91749821,9.512738827,-99999.0,'11133222,11111222,99999999' 
TABS,ioos:station:wmo:42050:1,2013-05-05T00:30:00Z,28.8425,-94.2433,2.0,66.6006034,8.989293632,-99999.0,'11133222,11111222,99999999' 
TABS,ioos:station:wmo:42050:1,2013-05-05T01:00:00Z,28.8425,-94.2433,2.0,65.04351432,8.603307504,-99999.0,'11133222,11111222,99999999' 
TABS,ioos:station:wmo:42050:1,2013-05-05T01:30:00Z,28.8425,-94.2433,2.0,42.09369457,12.41154704,-99999.0,'11111222,11111222,99999999' 
TABS,ioos:station:wmo:42050:1,2013-05-05T02:00:00Z,28.8425,-94.2433,2.0,44.87935589,13.42091651,-99999.0,'11111222,11111222,99999999' 
TABS,ioos:station:wmo:42050:1,2013-05-05T02:30:00Z,28.8425,-94.2433,2.0,45.36326145,14.5030514,-99999.0,'11111222,11111222,99999999' 
TABS,ioos:station:wmo:42050:1,2013-05-05T03:00:00Z,28.8425,-94.2433,2.0,49.4265675,15.6667195,-99999.0,'11111222,11111222,99999999' 
TABS,ioos:station:wmo:42050:1,2013-05-05T03:30:00Z,28.8425,-94.2433,2.0,54.42432247,13.99156889,-99999.0,'11111222,11111222,99999999' 
TABS,ioos:station:wmo:42050:1,2013-05-05T04:00:00Z,28.8425,-94.2433,2.0,47.44275825,15.76158939,-99999.0,'11111222,11111222,99999999' 
TABS,ioos:station:wmo:42050:1,2013-05-05T04:30:00Z,28.8425,-94.2433,2.0,54.2248766,15.70286598,-99999.0,'11111222,11111222,99999999' 
TABS,ioos:station:wmo:42050:1,2013-05-05T05:00:00Z,28.8425,-94.2433,2.0,54.02678277,16.36000306,-99999.0,'11111222,11111222,99999999' 
TABS,ioos:station:wmo:42050:1,2013-05-05T05:30:00Z,28.8425,-94.2433,2.0,68.60664527,21.38336035,-99999.0,'11111222,11111222,99999999' 
TABS,ioos:station:wmo:42050:1,2013-05-05T06:00:00Z,28.8425,-94.2433,2.0,70.33278011,17.20360718,-99999.0,'11111222,11111222,99999999' 
TABS,ioos:station:wmo:42050:1,2013-05-05T06:30:00Z,28.8425,-94.2433,2.0,68.06270257,19.56677286,-99999.0,'11111222,11111222,99999999' 
TABS,ioos:station:wmo:42050:1,2013-05-05T07:00:00Z,28.8425,-94.2433,2.0,81.7172723,18.04825753,-99999.0,'11111222,11111222,99999999' 
TABS,ioos:station:wmo:42050:1,2013-05-05T07:30:00Z,28.8425,-94.2433,2.0,91.30531964,19.3150123,-99999.0,'11111222,11111222,99999999' 
TABS,ioos:station:wmo:42050:1,2013-05-05T08:00:00Z,28.8425,-94.2433,2.0,95.8199523,18.24404012,-99999.0,'11111222,11111222,99999999' 
TABS,ioos:station:wmo:42050:1,2013-05-05T08:30:00Z,28.8425,-94.2433,2.0,102.0207961,17.86167125,-99999.0,'11111222,11111222,99999999' 
TABS,ioos:station:wmo:42050:1,2013-05-05T09:00:00Z,28.8425,-94.2433,2.0,97.97675013,15.8533908,-99999.0,'11111222,11111222,99999999' 
TABS,ioos:station:wmo:42050:1,2013-05-05T09:30:00Z,28.8425,-94.2433,2.0,104.3548484,20.93357351,-99999.0,'11111222,11111222,99999999' 
TABS,ioos:station:wmo:42050:1,2013-05-05T10:00:00Z,28.8425,-94.2433,2.0,115.3047686,19.11406027,-99999.0,'11111222,11111222,99999999' 
TABS,ioos:station:wmo:42050:1,2013-05-05T10:30:00Z,28.8425,-94.2433,2.0,107.9466285,19.66691892,-99999.0,'11111222,11111222,99999999' 
TABS,ioos:station:wmo:42050:1,2013-05-05T11:00:00Z,28.8425,-94.2433,2.0,115.9000791,16.18574991,-99999.0,'11111222,11111222,99999999' 